#timestamp,LO_Frequency,Hit 
1502046015.4,286047027.2,N
1502046035.3,286047026.6,N
1502046055.1,286047025.7,N
1502046075.8,286047025.5,N
1502046095.7,286047028.3,N
1502046115.5,286047029.7,N
1502046135.3,286047029.8,N
1502046155.2,286047027.1,N
1502046175.9,286047029.0,N
1502046195.7,286047027.4,N
1502046215.6,286047027.4,N
1502046235.4,286047027.1,N
1502046255.2,286047026.9,N
1502046275.0,286047026.5,N
1502046276.0,286047026.5,N
1502046295.8,286047025.6,N
1502046315.6,286047026.0,N
1502046335.4,286047026.5,N
1502046355.3,286047028.2,N
1502046375.1,286047028.4,N
1502046395.8,286047025.4,N
1502046415.7,286047028.4,N
1502046435.5,286047027.8,N
1502046455.3,286047029.5,N
1502046475.2,286047028.2,N
1502046495.9,286047028.3,N
1502046515.7,286047027.1,N
1502046535.6,286047027.5,N
1502046555.4,286047025.4,N
1502046575.2,286047029.6,N
1502046595.1,286047027.9,N
1502046596.0,286047027.9,N
1502046615.8,286047027.3,N
1502046635.6,286047025.8,N
1502046655.4,286047028.4,N
1502046675.3,286047025.8,N
1502046695.1,286047025.5,N
1502046715.8,286047025.9,N
1502046735.7,286047025.9,N
1502046755.5,286047026.4,N
1502046775.3,286047025.3,N
1502046795.2,286047028.1,N
1502046815.9,286047027.6,N
1502046835.7,286047027.8,N
1502046855.6,286047031.5,N
1502046875.4,286047031.0,N
1502046895.2,286047030.9,N
1502046915.0,286047030.9,N
1502046915.9,286047030.9,N
1502046935.8,286047029.1,N
1502046955.6,286047028.7,N
1502046975.4,286047031.1,N
1502046995.3,286047030.3,N
1502047015.1,286047028.9,N
1502047035.8,286047029.0,N
1502047055.7,286047031.4,N
1502047075.5,286047030.4,N
1502047095.3,286047030.8,N
1502047115.2,286047028.7,N
1502047135.9,286047028.6,N
1502047155.7,286047029.3,N
1502047175.6,286047026.9,N
1502047195.4,286047030.0,N
1502047215.2,286047031.0,N
1502047235.0,286047028.5,N
1502047236.0,286047028.5,N
1502047255.8,286047026.9,N
1502047275.6,286047030.0,N
1502047295.4,286047029.6,N
1502047315.3,286047028.5,N
1502047335.1,286047027.4,N
1502047355.8,286047028.0,N
1502047375.7,286047030.0,N
1502047395.5,286047029.6,N
1502047415.3,286047026.5,N
1502047435.2,286047025.7,N
1502047455.9,286047027.4,N
1502047475.7,286047027.8,N
1502047495.6,286047030.0,N
1502047515.4,286047028.4,N
1502047535.2,286047025.6,N
1502047555.0,286047027.6,N
1502047555.9,286047027.6,N
1502047575.8,286047028.4,N
1502047595.6,286047027.3,N
1502047615.4,286047028.2,N
1502047635.3,286047029.6,N
1502047655.1,286047027.3,N
1502047675.8,286047025.4,N
1502047695.7,286047026.0,N
1502047715.5,286047027.4,N
1502047735.3,286047028.8,N
1502047755.2,286047027.7,N
1502047775.9,286047029.4,N
1502047795.7,286047029.6,N
1502047815.5,286047029.3,N
1502047835.4,286047028.4,N
1502047855.2,286047031.3,N
1502047875.0,286047028.9,N
1502047875.9,286047028.9,N
1502047895.8,286047029.6,N
1502047915.6,286047031.4,N
1502047935.4,286047031.4,N
1502047955.3,286047031.1,N
1502047975.1,286047030.9,N
1502047976.0,286047030.9,N
1502047995.8,286047031.4,N
1502048015.7,286047032.3,N
1502048035.5,286047032.8,N
1502048055.3,286047030.4,N
1502048075.2,286047028.7,N
1502048095.9,286047028.7,N
1502048115.7,286047028.9,N
1502048135.5,286047031.8,N
1502048155.4,286047030.3,N
1502048175.2,286047031.0,N
1502048195.0,286047028.8,N
1502048195.9,286047028.8,N
1502048215.8,286047031.4,N
1502048235.6,286047031.1,N
1502048255.4,286047031.5,N
1502048275.3,286047029.3,N
1502048295.1,286047030.0,N
1502048296.0,286047030.0,N
1502048315.8,286047027.4,N
1502048335.7,286047025.4,N
1502048355.5,286047027.4,N
1502048375.3,286047030.0,N
1502048395.1,286047027.4,N
1502048415.9,286047026.5,N
1502048435.7,286047025.6,N
1502048455.5,286047023.7,N
1502048475.4,286047024.9,N
1502048495.2,286047024.2,N
1502048515.0,286047028.2,N
1502048515.9,286047028.2,N
1502048535.8,286047027.4,N
1502048555.6,286047027.3,N
1502048575.4,286047027.4,N
1502048595.3,286047029.5,N
1502048615.1,286047029.0,N
1502048616.0,286047029.0,N
1502048635.8,286047029.8,N
1502048655.7,286047026.9,N
1502048675.5,286047029.3,N
1502048695.3,286047030.7,N
1502048715.2,286047031.6,N
1502048735.9,286047027.3,N
1502048755.7,286047029.5,N
1502048775.5,286047028.6,N
1502048795.4,286047029.9,N
1502048815.2,286047029.2,N
1502048835.0,286047027.7,N
1502048835.9,286047027.7,N
1502048855.8,286047028.8,N
1502048875.6,286047029.2,N
1502048895.4,286047030.4,N
1502048915.3,286047031.2,N
1502048935.1,286047032.5,N
1502048936.0,286047032.5,N
1502048955.8,286047034.8,N
1502048975.7,286047030.1,N
1502048995.5,286047034.8,N
1502049015.3,286047033.1,N
1502049035.1,286047030.2,N
1502049055.9,286047030.7,N
1502049075.7,286047028.7,N
1502049095.5,286047031.4,N
1502049115.4,286047031.4,N
1502049135.2,286047028.7,N
1502049155.0,286047027.1,N
1502049155.9,286047027.1,N
1502049175.8,286047029.1,N
1502049195.6,286047029.8,N
1502049215.4,286047030.0,N
1502049235.3,286047030.0,N
1502049255.1,286047027.5,N
1502049256.0,286047027.5,N
1502049275.8,286047026.8,N
1502049295.7,286047025.5,N
1502049315.5,286047026.7,N
1502049335.3,286047028.0,N
1502049355.1,286047028.3,N
1502049375.9,286047026.9,N
1502049395.7,286047029.3,N
1502049415.5,286047029.4,N
1502049435.4,286047029.3,N
1502049455.2,286047026.9,N
1502049475.0,286047028.5,N
1502049475.9,286047028.5,N
1502049495.8,286047029.1,N
1502049515.6,286047030.2,N
1502049535.4,286047028.8,N
1502049555.3,286047030.4,N
1502049575.1,286047030.8,N
1502049576.0,286047030.8,N
1502049595.8,286047029.0,N
